Orbital Elements at Epoch 2459200.5 (2020-Dec-17.0) TDB
Reference: JPL 23 (heliocentric ecliptic J2000)
Element | Value | Uncertainty (1-sigma) | Units |
e | .1250006554923396 | 3.4845e-08 | |
a | 2.70725541042646 | 1.5904e-08 | au |
q | 2.36884670953797 | 9.5132e-08 | au |
i | 13.22698072297456 | 6.5377e-06 | deg |
node | 198.1922384848827 | 1.7138e-05 | deg |
peri | 272.7992017996713 | 3.2477e-05 | deg |
M | 355.5659195155488 | 2.696e-05 | deg |
tp | 2459220.539798179992 (2021-Jan-06.03979818) | 0.00012189 | TDB |
period | 1627.017680462812 4.45 | 1.4337e-05 3.925e-08 | d yr |
n | .2212637295358687 | 1.9497e-09 | deg/d |
Q | 3.04566411131495 | 1.7891e-08 | au |
|
| | Orbit Determination Parameters
Additional Information
|